This is the latest recevied weather packets stored in our database for station/object IV3CLI-10. If no packets are shown the sender has not sent any weather packets the latest 1 day(s).
| Time | Temp. | Humidity | Pressure | Rain* | Wind** | Luminosity | Snow |
|---|---|---|---|---|---|---|---|
| 1778096388 | 15.56° C | 100% | 1008.8 hPa | - | - | - | - |
| 1778095488 | 15.56° C | 100% | 1008.8 hPa | - | - | - | - |
| 1778094588 | 15° C | 100% | 1008.4 hPa | - | - | - | - |
| 1778093688 | 15.56° C | 100% | 1007.7 hPa | - | - | - | - |
| 1778092788 | 16.11° C | 100% | 1007.4 hPa | - | - | - | - |
| 1778085587 | 15.56° C | 100% | 1007 hPa | - | - | - | - |
| 1778084687 | 15.56° C | 100% | 1007.2 hPa | - | - | - | - |
| 1778083787 | 16.67° C | 100% | 1007.6 hPa | - | - | - | - |
| 1778077486 | 18.89° C | 100% | 1008.2 hPa | - | - | - | - |
| 1778075686 | 18.33° C | 100% | 1008.2 hPa | - | - | - | - |
| 1778074786 | 18.89° C | 100% | 1006.2 hPa | - | - | - | - |
| 1778073886 | 16.67° C | 100% | 1006.8 hPa | - | - | - | - |
| 1778072986 | 16.67° C | 100% | 1007 hPa | - | - | - | - |
| 1778064890 | 15.56° C | 100% | 1003.5 hPa | - | - | - | - |
| 1778063990 | 15.56° C | 100% | 1003.6 hPa | - | - | - | - |
| 1778063090 | 16.11° C | 100% | 1003 hPa | - | - | - | - |
| 1778062190 | 16.67° C | 100% | 997.2 hPa | - | - | - | - |
| 1778061290 | 17.22° C | 100% | 996.8 hPa | - | - | - | - |
| 1778060390 | 16.11° C | 100% | 997.3 hPa | - | - | - | - |
| 1778057689 | 15° C | 100% | 997.7 hPa | - | - | - | - |
| 1778056789 | 15° C | 100% | 997.8 hPa | - | - | - | - |
| 1778055889 | 15° C | 100% | 997.6 hPa | - | - | - | - |
| 1778054989 | 15° C | 100% | 997.5 hPa | - | - | - | - |
| 1778054089 | 15° C | 100% | 997.2 hPa | - | - | - | - |
| 1778053189 | 14.44° C | 100% | 997.1 hPa | - | - | - | - |
* Rain since midnight (hover to see other rain measurements)
** Current wind speed in m/s (hover to see current wind gust speed)